Hourly Data Report for October 04, 2017

All times are specified in Local Standard Time (LST). Add 1 hour to adjust for Daylight Saving Time where and when it is observed.

TRACADIE
NOVA SCOTIA

45°36'30.080" N
61°40'47.020" W
66.70 m
8205895
71308
XTD

Download Data

Hourly Data (October 2017)
Hourly Data Report for October 4, 2017
Temp Definition
°C
Dew Point Temp Definition
°C
Rel Hum Definition
%
Wind Dir Definition
10's deg

Wind Spd Definition
km/h
Visibility Definition
km
Stn Press Definition
kPa
Hmdx Definition


Wind Chill Definition


Weather Definition


TIME
00:00 8.0 5.9 87 20 13   102.14     LegendNANA
01:00 8.1 6.0 86 19 14   102.09     LegendNANA
02:00 8.3 5.7 84 20 17   101.97     LegendNANA
03:00 8.6 6.3 86 22 18   101.89     LegendNANA
04:00 8.3 6.4 88 22 20   101.84     LegendNANA
05:00 8.6 6.8 89 20 21   101.73     LegendNANA
06:00 8.8 7.4 90 20 24   101.66     LegendNANA
07:00 9.5 8.3 92 21 25   101.56     LegendNANA
08:00 11.1 8.8 86 21 25   101.53     LegendNANA
09:00 13.6 9.9 78 22 29   101.45     LegendNANA
10:00 16.6 11.7 73 22 20   101.41     LegendNANA
11:00 19.1 12.8 67 21 18   101.35     LegendNANA
12:00 20.7 13.7 64 22 20   101.29     LegendNANA
13:00 20.8 13.4 63 24 15   101.17     LegendNANA
14:00 20.7 12.2 58 24 20   101.09     LegendNANA
15:00 20.9 12.6 59 24 16   101.00     LegendNANA
16:00 20.4 12.3 60 24 15   100.96     LegendNANA
17:00 19.0 12.0 64 23 14   100.92     LegendNANA
18:00 17.2 12.1 72 20 15   100.85     LegendNANA
19:00 16.9 12.6 76 20 21   100.76     LegendNANA
20:00 16.4 13.2 82 20 22   100.70     LegendNANA
21:00 17.5 12.8 74 21 26   100.62     LegendNANA
22:00 16.9 12.6 76 21 24   100.55     LegendNANA
23:00 16.2 11.7 75 22 30   100.52     LegendNANA

Notes on Data Quality.

Legend

  • E = Estimated
  • M = Missing
  • NA = Not Available
  • ‡ = Partner data that is not subject to review by the National Climate Archives
Date modified: